Atlanta Fulton, GA

9:19 PM EST on November 14, 2019 (GMT -0500)
Fulton County-Brown

Weather History for KFTY - September, 2019

Change the Weather History Date:

Sunday, September 29, 2019

  Actual Average Record
Temperature  
Mean Temperature 81 °F 68 °F  
Max Temperature 93 °F 79 °F 89 °F (2017)
Min Temperature 69 °F 58 °F 45 °F (2003)
Degree Days  
Heating Degree Days 0 1  
Month to date heating degree days 0 8  
Since 1 July heating degree days 0 8  
Cooling Degree Days 16 5  
Month to date cooling degree days 425 240  
Year to date cooling degree days 2141 1677  
Growing Degree Days 30 (Base 50)    
Moisture  
Dew Point 67 °F    
Average Humidity 69    
Maximum Humidity 97    
Minimum Humidity 41    
Precipitation  
Precipitation 0.00 in 0.15 in 3.63 in (1963)
Month to date precipitation 1.66 3.84  
Year to date precipitation 31.95 39.26  
Sea Level Pressure  
Sea Level Pressure 30.16 in    
Wind  
Wind Speed 2 mph (SSE)    
Max Wind Speed 10 mph    
Max Gust Speed 15 mph    
Visibility 10 miles    
Events      
T = Trace of Precipitation, MM = Missing Value Source: NWS Daily Summary

Daily Weather History Graph

Daily Weather History Graph

Search for Another Location

Airport or City:

Astronomy

Sep. 29, 2019 Rise Set
Actual Time 7:30 AM EDT 7:25 PM EDT
Civil Twilight 7:06 AM EDT 7:50 PM EDT
Nautical Twilight 6:37 AM EDT 8:19 PM EDT
Astronomical Twilight 6:07 AM EDT 8:48 PM EDT
Moon 8:20 AM EDT (9/29) 8:27 PM EDT (9/29)
Length of Visible Light 12h 44m
Length of Day
11h 54m
New Moon, 1% of the Moon is Illuminated
Sep 29
New Moon
Oct 5
First Quarter
Oct 13
Full
Oct 21
Last Quarter
Oct 27
New

Hourly Weather History & Observations

Time (EDT) Temp. Heat Index Dew Point Humidity Pressure Visibility Wind Dir Wind Speed Gust Speed Precip Events Conditions
12:53 AM 73.0 °F - 69.1 °F 87% 30.13 in 10.0 mi NE 4.6 mph - N/A   Clear
1:53 AM 73.0 °F - 69.1 °F 87% 30.14 in 10.0 mi NNE 3.5 mph - N/A   Clear
2:53 AM 73.0 °F - 69.1 °F 87% 30.14 in 10.0 mi Calm Calm - N/A   Clear
3:53 AM 72.0 °F - 69.1 °F 91% 30.14 in 10.0 mi Calm Calm - N/A   Clear
4:53 AM 71.1 °F - 69.1 °F 93% 30.15 in 10.0 mi Calm Calm - N/A   Clear
5:53 AM 70.0 °F - 68.0 °F 93% 30.16 in 8.0 mi Calm Calm - N/A   Clear
6:53 AM 71.1 °F - 68.0 °F 90% 30.18 in 10.0 mi Calm Calm - N/A   Clear
7:53 AM 70.0 °F - 68.0 °F 93% 30.21 in 6.0 mi Calm Calm - N/A   Clear
8:53 AM 73.9 °F - 69.1 °F 85% 30.22 in 10.0 mi Calm Calm - N/A   Clear
9:53 AM 77.0 °F - 68.0 °F 74% 30.23 in 10.0 mi South 4.6 mph - N/A   Clear
10:53 AM 80.1 °F 82.9 °F 69.1 °F 69% 30.22 in 10.0 mi SSW 3.5 mph - N/A   Clear
11:53 AM 84.9 °F 88.2 °F 68.0 °F 57% 30.21 in 10.0 mi Calm Calm - N/A   Clear
12:53 PM 88.0 °F 92.1 °F 69.1 °F 53% 30.19 in 10.0 mi Calm Calm - N/A   Partly Cloudy
1:53 PM 90.0 °F 92.4 °F 66.0 °F 45% 30.16 in 10.0 mi South 5.8 mph - N/A   Clear
2:53 PM 91.0 °F 93.0 °F 64.9 °F 42% 30.14 in 10.0 mi South 4.6 mph - N/A   Mostly Cloudy
3:53 PM 91.0 °F 93.0 °F 64.9 °F 42% 30.13 in 10.0 mi Variable 3.5 mph - N/A   Clear
4:53 PM 91.9 °F 93.3 °F 64.0 °F 39% 30.11 in 10.0 mi North - - N/A   Clear
5:53 PM 91.0 °F 92.6 °F 64.0 °F 41% 30.11 in 10.0 mi SE 4.6 mph - N/A   Clear
6:53 PM 90.0 °F 91.3 °F 64.0 °F 42% 30.12 in 10.0 mi South 3.5 mph - N/A   Clear
7:53 PM 87.1 °F 88.9 °F 64.9 °F 48% 30.12 in 10.0 mi South 4.6 mph - N/A   Clear
8:53 PM 80.1 °F 82.7 °F 68.0 °F 67% 30.14 in 10.0 mi Calm Calm - N/A   Clear
9:53 PM 75.9 °F - 69.1 °F 79% 30.15 in 10.0 mi Calm Calm - N/A   Clear
10:53 PM 73.9 °F - 69.1 °F 85% 30.16 in 10.0 mi Calm Calm - N/A   Clear
11:53 PM 73.9 °F - 68.0 °F 82% 30.16 in 10.0 mi Calm Calm - N/A   Clear